| time (UTC) | temp C | wind direction | speed KPH | gust KPH | rain 1hr cm | rain 24hr cm | rain mn cm | humidity % | barometer mb |
| 20260509135024 | 9 | 182 | 3.2 | 11.3 | 0.00 | 0.00 | 0.00 | 66 | 1011.6 |
| 20260509133518 | 8 | 355 | 3.2 | 12.9 | 0.00 | 0.00 | 0.00 | 68 | 1011.7 |
| 20260509132020 | 8 | 190 | 3.2 | 8.0 | 0.00 | 0.00 | 0.00 | 70 | 1011.7 |
| 20260509130515 | 7 | 128 | 1.6 | 6.4 | 0.00 | 0.00 | 0.00 | 73 | 1011.9 |
| 20260509125016 | 5 | 119 | 0.0 | 0.0 | 0.00 | 0.00 | 0.00 | 85 | 1012.0 |
| 20260509123512 | 3 | 97 | 0.0 | 0.0 | 0.00 | 0.00 | 0.00 | 90 | 1012.2 |
| 20260509122009 | 1 | 96 | 0.0 | 0.0 | 0.00 | 0.00 | 0.00 | 94 | 1012.4 |
| 20260509120502 | 0 | 96 | 0.0 | 0.0 | 0.00 | 0.00 | 0.00 | 97 | 1012.7 |
| 20260509115001 | 0 | 96 | 0.0 | 0.0 | 0.00 | 0.00 | 0.00 | 98 | 1012.7 |
| 20260509113454 | -1 | 96 | 0.0 | 0.0 | 0.00 | 0.00 | 0.00 | 97 | 1012.8 |
| 20260509111955 | -1 | 96 | 0.0 | 0.0 | 0.00 | 0.00 | 0.00 | 96 | 1012.9 |
| 20260509110453 | -2 | 96 | 0.0 | 0.0 | 0.00 | 0.00 | 0.00 | 95 | 1012.9 |
| 20260509104952 | -2 | 96 | 0.0 | 0.0 | 0.00 | 0.00 | 0.00 | 95 | 1013.0 |
| 20260509103453 | -2 | 95 | 0.0 | 0.0 | 0.00 | 0.00 | 0.00 | 95 | 1012.9 |
| 20260509101950 | -2 | 95 | 0.0 | 0.0 | 0.00 | 0.00 | 0.00 | 95 | 1012.8 |
| 20260509101223 | -2 | 95 | 0.0 | 0.0 | 0.00 | 0.00 | 0.00 | 94 | 1012.6 |
| 20260509100446 | -2 | 95 | 0.0 | 0.0 | 0.00 | 0.00 | 0.00 | 94 | 1012.4 |
| 20260509093445 | -2 | 95 | 0.0 | 0.0 | 0.00 | 0.00 | 0.00 | 94 | 1012.4 |
| 20260509091940 | -2 | 95 | 0.0 | 0.0 | 0.00 | 0.00 | 0.00 | 93 | 1012.3 |
| 20260509090438 | -2 | 95 | 0.0 | 0.0 | 0.00 | 0.00 | 0.00 | 94 | 1012.2 |
| 20260509084932 | -2 | 95 | 0.0 | 0.0 | 0.00 | 0.00 | 0.00 | 94 | 1012.0 |
| 20260509083434 | -2 | 95 | 0.0 | 0.0 | 0.00 | 0.00 | 0.00 | 93 | 1012.0 |
| 20260509081929 | -1 | 95 | 0.0 | 0.0 | 0.00 | 0.00 | 0.00 | 93 | 1011.6 |
| 20260509080430 | -1 | 95 | 0.0 | 0.0 | 0.00 | 0.00 | 0.00 | 93 | 1011.8 |
| 20260509074930 | -1 | 95 | 0.0 | 0.0 | 0.00 | 0.00 | 0.00 | 93 | 1011.9 |
| 20260509073430 | -1 | 95 | 0.0 | 0.0 | 0.00 | 0.00 | 0.00 | 92 | 1011.9 |
| 20260509071930 | -1 | 95 | 0.0 | 0.0 | 0.00 | 0.00 | 0.00 | 92 | 1012.0 |
| 20260509070430 | -1 | 95 | 0.0 | 0.0 | 0.00 | 0.00 | 0.00 | 92 | 1012.1 |
| 20260509064931 | -1 | 95 | 0.0 | 0.0 | 0.00 | 0.00 | 0.00 | 91 | 1012.1 |
| 20260509064157 | -1 | 95 | 0.0 | 0.0 | 0.00 | 0.00 | 0.00 | 91 | 1012.1 |
| 20260509061924 | 0 | 95 | 0.0 | 0.0 | 0.00 | 0.00 | 0.00 | 91 | 1012.1 |
| 20260509060422 | 0 | 95 | 0.0 | 0.0 | 0.00 | 0.00 | 0.00 | 90 | 1012.1 |
| 20260509054923 | 0 | 95 | 0.0 | 0.0 | 0.00 | 0.00 | 0.00 | 90 | 1012.2 |
| 20260509053422 | 0 | 95 | 0.0 | 0.0 | 0.00 | 0.00 | 0.00 | 89 | 1012.2 |
| 20260509051918 | 0 | 95 | 0.0 | 0.0 | 0.00 | 0.00 | 0.00 | 89 | 1012.0 |
| 20260509050418 | 0 | 95 | 0.0 | 0.0 | 0.00 | 0.00 | 0.00 | 88 | 1011.8 |
| 20260509045646 | 0 | 95 | 0.0 | 0.0 | 0.00 | 0.00 | 0.00 | 88 | 1011.9 |
| 20260509043413 | 1 | 95 | 0.0 | 0.0 | 0.00 | 0.00 | 0.00 | 87 | 1011.7 |
| 20260509041914 | 1 | 95 | 0.0 | 0.0 | 0.00 | 0.00 | 0.00 | 86 | 1011.9 |
| 20260509040413 | 1 | 95 | 0.0 | 0.0 | 0.00 | 0.00 | 0.00 | 85 | 1011.8 |
| 20260509034913 | 1 | 95 | 0.0 | 0.0 | 0.00 | 0.00 | 0.00 | 84 | 1011.7 |
| 20260509034145 | 2 | 95 | 0.0 | 0.0 | 0.00 | 0.00 | 0.00 | 83 | 1011.7 |
| 20260509031912 | 2 | 95 | 0.0 | 0.0 | 0.00 | 0.00 | 0.00 | 82 | 1011.5 |
| 20260509030409 | 3 | 128 | 0.0 | 0.0 | 0.00 | 0.00 | 0.00 | 81 | 1011.5 |
| 20260509024909 | 3 | 128 | 0.0 | 0.0 | 0.00 | 0.00 | 0.00 | 80 | 1011.4 |
| 20260509023409 | 4 | 128 | 0.0 | 0.0 | 0.00 | 0.00 | 0.00 | 79 | 1011.1 |
| 20260509021906 | 5 | 128 | 0.0 | 0.0 | 0.00 | 0.00 | 0.00 | 77 | 1011.0 |
| 20260509020406 | 5 | 128 | 0.0 | 0.0 | 0.00 | 0.00 | 0.00 | 77 | 1010.7 |
| 20260509014906 | 5 | 128 | 0.0 | 0.0 | 0.00 | 0.00 | 0.00 | 75 | 1010.7 |
| 20260509014139 | 6 | 128 | 0.0 | 1.6 | 0.00 | 0.00 | 0.00 | 73 | 1010.5 |
| 20260509011907 | 6 | 120 | 0.0 | 0.0 | 0.00 | 0.00 | 0.00 | 72 | 1010.3 |
| 20260509010406 | 7 | 120 | 0.0 | 0.0 | 0.00 | 0.00 | 0.00 | 67 | 1010.0 |
| 20260509004911 | 8 | 120 | 0.0 | 0.0 | 0.00 | 0.00 | 0.00 | 66 | 1009.2 |
| 20260509004906 | 7 | 120 | 0.0 | 0.0 | 0.00 | 0.00 | 0.00 | 65 | 1009.6 |
| 20260509001904 | 8 | 120 | 0.0 | 4.8 | 0.00 | 0.00 | 0.00 | 61 | 1009.1 |
| 20260509000358 | 8 | 307 | 0.0 | 4.8 | 0.00 | 0.00 | 0.00 | 58 | 1008.8 |
| 20260508234856 | 9 | 32 | 0.0 | 0.0 | 0.00 | 0.00 | 0.00 | 54 | 1008.8 |
| 20260508233356 | 10 | 13 | 0.0 | 6.4 | 0.00 | 0.00 | 0.00 | 53 | 1008.5 |
| 20260508233350 | 9 | 13 | 0.0 | 0.0 | 0.00 | 0.00 | 0.00 | 55 | 1008.7 |
| 20260508231114 | 10 | 13 | 0.0 | 6.4 | 0.00 | 0.00 | 0.00 | 44 | 1008.4 |
| 20260508224841 | 10 | 11 | 1.6 | 8.0 | 0.00 | 0.00 | 0.00 | 42 | 1008.3 |
| 20260508223334 | 11 | 12 | 0.0 | 4.8 | 0.00 | 0.00 | 0.00 | 42 | 1008.3 |
| 20260508221835 | 11 | 83 | 0.0 | 6.4 | 0.00 | 0.00 | 0.00 | 40 | 1008.2 |
| 20260508220329 | 11 | 28 | 4.8 | 16.1 | 0.00 | 0.00 | 0.00 | 36 | 1008.2 |
| 20260508214828 | 11 | 355 | 4.8 | 16.1 | 0.00 | 0.00 | 0.00 | 36 | 1008.0 |
| 20260508214054 | 11 | 299 | 1.6 | 16.1 | 0.00 | 0.00 | 0.00 | 37 | 1008.0 |
| 20260508211824 | 11 | 5 | 3.2 | 11.3 | 0.00 | 0.00 | 0.00 | 37 | 1008.0 |
| 20260508211047 | 11 | 276 | 1.6 | 16.1 | 0.00 | 0.00 | 0.00 | 36 | 1007.8 |
| 20260508204817 | 12 | 37 | 3.2 | 16.1 | 0.00 | 0.00 | 0.00 | 36 | 1007.8 |
| 20260508203311 | 12 | 121 | 4.8 | 11.3 | 0.00 | 0.00 | 0.00 | 38 | 1007.6 |
| 20260508201811 | 11 | 296 | 0.0 | 6.4 | 0.00 | 0.00 | 0.00 | 39 | 1007.5 |
| 20260508201036 | 11 | 292 | 3.2 | 12.9 | 0.00 | 0.00 | 0.00 | 40 | 1007.6 |
| 20260508194806 | 11 | 11 | 3.2 | 12.9 | 0.00 | 0.00 | 0.00 | 40 | 1007.7 |
| 20260508193259 | 10 | 42 | 4.8 | 16.1 | 0.00 | 0.00 | 0.00 | 41 | 1007.8 |
| 20260508192529 | 11 | 288 | 4.8 | 19.3 | 0.00 | 0.00 | 0.00 | 40 | 1007.7 |
| 20260508190253 | 11 | 205 | 3.2 | 17.7 | 0.00 | 0.00 | 0.00 | 41 | 1007.6 |
| 20260508184753 | 11 | 296 | 6.4 | 19.3 | 0.00 | 0.00 | 0.00 | 37 | 1007.6 |
| 20260508183249 | 12 | 5 | 6.4 | 25.7 | 0.00 | 0.00 | 0.00 | 40 | 1007.7 |
| 20260508181747 | 11 | 342 | 4.8 | 16.1 | 0.00 | 0.00 | 0.00 | 45 | 1007.8 |
| 20260508181019 | 10 | 332 | 6.4 | 17.7 | 0.00 | 0.00 | 0.00 | 43 | 1008.0 |
| 20260508174747 | 10 | 340 | 0.0 | 8.0 | 0.00 | 0.00 | 0.00 | 43 | 1007.9 |
| 20260508173249 | 10 | 337 | 6.4 | 16.1 | 0.00 | 0.00 | 0.00 | 45 | 1007.9 |
| 20260508172514 | 10 | 355 | 4.8 | 16.1 | 0.00 | 0.00 | 0.00 | 43 | 1008.0 |
| 20260508170244 | 10 | 315 | 1.6 | 14.5 | 0.00 | 0.00 | 0.00 | 44 | 1008.0 |
| 20260508164745 | 10 | 11 | 4.8 | 17.7 | 0.00 | 0.00 | 0.00 | 44 | 1008.1 |
| 20260508164014 | 9 | 178 | 1.6 | 12.9 | 0.00 | 0.00 | 0.00 | 47 | 1008.4 |
| 20260508161745 | 8 | 0 | 1.6 | 9.7 | 0.00 | 0.00 | 0.00 | 50 | 1008.4 |
| 20260508160244 | 9 | 329 | 3.2 | 12.9 | 0.00 | 0.00 | 0.00 | 50 | 1008.5 |
| 20260508154743 | 9 | 343 | 3.2 | 17.7 | 0.00 | 0.00 | 0.00 | 50 | 1008.4 |
| 20260508154016 | 9 | 5 | 6.4 | 19.3 | 0.00 | 0.00 | 0.00 | 48 | 1008.4 |
| 20260508152514 | 9 | 350 | 6.4 | 16.1 | 0.00 | 0.00 | 0.00 | 50 | 1008.2 |
| 20260508150244 | 8 | 270 | 3.2 | 17.7 | 0.00 | 0.00 | 0.00 | 49 | 1008.2 |
| 20260508144743 | 8 | 22 | 4.8 | 17.7 | 0.00 | 0.00 | 0.00 | 47 | 1008.3 |
| 20260508143243 | 9 | 239 | 3.2 | 11.3 | 0.00 | 0.00 | 0.00 | 47 | 1008.1 |
| 20260508141738 | 9 | 44 | 4.8 | 19.3 | 0.00 | 0.00 | 0.00 | 49 | 1008.1 |
| 20260508140236 | 10 | 355 | 4.8 | 16.1 | 0.00 | 0.00 | 0.00 | 45 | 1008.2 |